Regional Weather Roundup
Issued by NWS

Home | Current Version | Previous Version | Graphics & Text | Print | Product List | Glossary On
Versions: 1 2 3 4 5 6 7 8 9 10 11 12 13 14 15 16 17 18 19 20 21 22 23 24 25 26 27 28 29 30 31 32 33 34 35 36 37 38 39 40 41 42 43 44 45 46 47 48 49 50
000
ASUS43 KFSD 302002
RWRSD

WEATHER ROUNDUP FOR SOUTH DAKOTA
NATIONAL WEATHER SERVICE SIOUX FALLS SD
300 PM CDT SAT JUL 30 2016

NOTE: "FAIR" INDICATES FEW OR NO CLOUDS BELOW 12,000 FEET WITH NO
SIGNIFICANT WEATHER AND/OR OBSTRUCTIONS TO VISIBILITY.


SDZ001>005-009-010-012>017-302100-
NORTHWEST AND NORTH CENTRAL SOUTH DAKOTA

CITY           SKY/WX    TMP DP  RH WIND       PRES   REMARKS
BUFFALO          N/A     90  54  29 S13G20    29.80F
FAITH            N/A     89  55  31 SE12G24   29.86F
MOBRIDGE       SUNNY     91  54  28 S15       29.83F
$$

SDZ012>016-024>037-041>051-057-063-072>074-302100-
SOUTHWEST AND SOUTH CENTRAL SOUTH DAKOTA

CITY           SKY/WX    TMP DP  RH WIND       PRES   REMARKS
RAPID CTY ARPT SUNNY     91  56  30 S13G23    29.86F
PIERRE         MOSUNNY   89  63  41 S14G24    29.84F
CUSTER         SUNNY     81  44  27 SW8       30.03F
ELLSWORTH AFB  SUNNY     90  56  31 SE9G20    29.86F
PHILIP         SUNNY     91  59  33 S14G20    29.84F
PINE RIDGE     SUNNY     90  59  35 S10G20    29.91F
WINNER         FAIR      86  64  47 SE13      29.91F
$$

SDZ004>011-016>023-039-040-302100-
NORTHEAST SOUTH DAKOTA

CITY           SKY/WX    TMP DP  RH WIND       PRES   REMARKS
ABERDEEN       SUNNY     83  58  42 S13G22    29.92F
WATERTOWN      SUNNY     81  58  45 S10       29.98S
BROOKINGS      MOSUNNY   78  61  55 S9        29.98F
SISSETON         N/A     80  60  50 S12G20    29.95F
$$

SDZ017-020-022-023-036>040-048>070-302100-
SOUTHEAST SOUTH DAKOTA

CITY           SKY/WX    TMP DP  RH WIND       PRES   REMARKS
SIOUX FALLS    MOSUNNY   80  55  42 VRB6G17   29.98F
HURON          SUNNY     84  57  39 S13G21    29.92F
CHAMBERLAIN    SUNNY     86  65  49 SE9G16    29.91F
MITCHELL       SUNNY     84  60  44 SE14G23   29.94F
YANKTON        PTSUNNY   81  61  50 S15       29.95S
$$

ABBREVIATIONS USED IN REMARKS
   TC - TEMPERATURE IN CELSIUS
  WCI - WIND CHILL INDEX
   HX - HEAT INDEX
  VSB - VISIBILITY





USA.gov is the U.S. government's official web portal to all federal, state and local government web resources and services.